| time (UTC) | temp C | wind direction | speed KPH | gust KPH | rain 1hr cm | rain 24hr cm | rain mn cm | humidity % | barometer mb |
| 20260506165519 | 13 | 283 | 0.0 | 14.5 | 0.00 | 0.00 | 0.00 | 84 | 1019.1 |
| 20260506165019 | 13 | 259 | 0.0 | 14.5 | 0.00 | 0.00 | 0.00 | 84 | 1019.2 |
| 20260506164520 | 13 | 261 | 0.0 | 0.0 | 0.00 | 0.00 | 0.00 | 84 | 1019.1 |
| 20260506164020 | 13 | 274 | 0.0 | 0.0 | 0.00 | 0.00 | 0.00 | 84 | 1019.2 |
| 20260506163523 | 13 | 257 | 0.0 | 0.0 | 0.00 | 0.00 | 0.00 | 85 | 1019.3 |
| 20260506163018 | 13 | 264 | 0.0 | 0.0 | 0.00 | 0.00 | 0.00 | 85 | 1019.3 |
| 20260506162517 | 13 | 252 | 0.0 | 0.0 | 0.00 | 0.00 | 0.00 | 85 | 1019.2 |
| 20260506162020 | 13 | 271 | 0.0 | 0.0 | 0.00 | 0.00 | 0.00 | 85 | 1019.2 |
| 20260506161521 | 13 | 267 | 0.0 | 0.0 | 0.00 | 0.00 | 0.00 | 85 | 1019.3 |
| 20260506161017 | 13 | 248 | 0.0 | 0.0 | 0.00 | 0.00 | 0.00 | 85 | 1019.4 |
| 20260506160521 | 13 | 281 | 0.0 | 0.0 | 0.00 | 0.00 | 0.00 | 85 | 1019.2 |
| 20260506160027 | 13 | 243 | 0.0 | 0.0 | 0.00 | 0.00 | 0.00 | 85 | 1019.4 |
| 20260506155515 | 13 | 256 | 0.0 | 0.0 | 0.00 | 0.00 | 0.00 | 85 | 1019.3 |
| 20260506155015 | 13 | 259 | 0.0 | 0.0 | 0.00 | 0.00 | 0.00 | 86 | 1019.2 |
| 20260506154514 | 12 | 245 | 0.0 | 0.0 | 0.00 | 0.00 | 0.00 | 86 | 1019.1 |
| 20260506154013 | 13 | 283 | 0.0 | 0.0 | 0.00 | 0.00 | 0.00 | 86 | 1019.1 |
| 20260506153514 | 13 | 273 | 0.0 | 0.0 | 0.00 | 0.00 | 0.00 | 86 | 1019.1 |
| 20260506153012 | 12 | 265 | 0.0 | 0.0 | 0.00 | 0.00 | 0.00 | 86 | 1019.1 |
| 20260506152512 | 12 | 274 | 0.0 | 0.0 | 0.00 | 0.00 | 0.00 | 86 | 1019.0 |
| 20260506152012 | 12 | 275 | 0.0 | 0.0 | 0.00 | 0.00 | 0.00 | 87 | 1018.9 |
| 20260506151513 | 12 | 283 | 0.0 | 0.0 | 0.00 | 0.00 | 0.00 | 87 | 1018.8 |
| 20260506151013 | 12 | 264 | 0.0 | 0.0 | 0.00 | 0.00 | 0.00 | 87 | 1018.7 |
| 20260506150516 | 12 | 280 | 0.0 | 0.0 | 0.00 | 0.00 | 0.00 | 87 | 1018.7 |
| 20260506150022 | 12 | 271 | 0.0 | 0.0 | 0.00 | 0.00 | 0.00 | 87 | 1018.7 |
| 20260506145509 | 12 | 271 | 0.0 | 0.0 | 0.00 | 0.00 | 0.00 | 88 | 1018.7 |
| 20260506145008 | 12 | 271 | 0.0 | 0.0 | 0.00 | 0.00 | 0.00 | 88 | 1018.6 |
| 20260506144508 | 12 | 271 | 0.0 | 0.0 | 0.00 | 0.00 | 0.00 | 88 | 1018.5 |
| 20260506144014 | 12 | 271 | 0.0 | 0.0 | 0.00 | 0.00 | 0.00 | 88 | 1018.6 |
| 20260506143510 | 12 | 276 | 0.0 | 0.0 | 0.00 | 0.00 | 0.00 | 88 | 1018.6 |
| 20260506143027 | 12 | 267 | 0.0 | 0.0 | 0.00 | 0.00 | 0.00 | 88 | 1018.6 |
| 20260506142506 | 12 | 250 | 0.0 | 0.0 | 0.00 | 0.00 | 0.00 | 88 | 1018.6 |
| 20260506142006 | 12 | 275 | 0.0 | 0.0 | 0.00 | 0.00 | 0.00 | 89 | 1018.5 |
| 20260506141508 | 12 | 285 | 0.0 | 0.0 | 0.00 | 0.00 | 0.00 | 89 | 1018.5 |
| 20260506141005 | 12 | 279 | 0.0 | 0.0 | 0.00 | 0.00 | 0.00 | 89 | 1018.6 |
| 20260506140505 | 12 | 264 | 0.0 | 0.0 | 0.00 | 0.00 | 0.00 | 89 | 1018.7 |
| 20260506140007 | 12 | 269 | 0.0 | 0.0 | 0.00 | 0.00 | 0.00 | 89 | 1018.5 |
| 20260506135503 | 12 | 252 | 0.0 | 0.0 | 0.00 | 0.00 | 0.00 | 89 | 1018.4 |
| 20260506135003 | 12 | 271 | 0.0 | 0.0 | 0.00 | 0.00 | 0.00 | 89 | 1018.4 |
| 20260506134502 | 12 | 276 | 0.0 | 0.0 | 0.00 | 0.00 | 0.00 | 90 | 1018.3 |
| 20260506134002 | 12 | 276 | 0.0 | 0.0 | 0.00 | 0.00 | 0.00 | 90 | 1018.2 |
| 20260506133502 | 12 | 276 | 0.0 | 0.0 | 0.00 | 0.00 | 0.00 | 90 | 1018.1 |
| 20260506133004 | 12 | 276 | 0.0 | 0.0 | 0.00 | 0.00 | 0.00 | 90 | 1018.2 |
| 20260506132503 | 12 | 276 | 0.0 | 0.0 | 0.00 | 0.00 | 0.00 | 90 | 1018.1 |
| 20260506132001 | 12 | 276 | 0.0 | 0.0 | 0.00 | 0.00 | 0.00 | 90 | 1018.1 |
| 20260506131602 | 12 | 276 | 0.0 | 0.0 | 0.00 | 0.00 | 0.00 | 90 | 1018.1 |
| 20260506131100 | 12 | 276 | 0.0 | 0.0 | 0.00 | 0.00 | 0.00 | 90 | 1018.1 |
| 20260506130559 | 11 | 276 | 0.0 | 0.0 | 0.00 | 0.00 | 0.00 | 91 | 1018.1 |
| 20260506130133 | 11 | 276 | 0.0 | 0.0 | 0.00 | 0.00 | 0.00 | 91 | 1018.0 |
| 20260506125602 | 11 | 276 | 0.0 | 0.0 | 0.00 | 0.00 | 0.00 | 91 | 1018.0 |
| 20260506125058 | 11 | 276 | 0.0 | 0.0 | 0.00 | 0.00 | 0.00 | 92 | 1018.0 |
| 20260506124558 | 11 | 276 | 0.0 | 0.0 | 0.00 | 0.00 | 0.00 | 92 | 1018.1 |
| 20260506124058 | 11 | 276 | 0.0 | 0.0 | 0.00 | 0.00 | 0.00 | 92 | 1018.1 |
| 20260506123559 | 11 | 276 | 0.0 | 0.0 | 0.00 | 0.00 | 0.00 | 92 | 1018.0 |
| 20260506123057 | 11 | 276 | 0.0 | 0.0 | 0.00 | 0.00 | 0.00 | 92 | 1018.0 |
| 20260506122556 | 11 | 276 | 0.0 | 0.0 | 0.00 | 0.00 | 0.00 | 93 | 1017.8 |
| 20260506122054 | 11 | 276 | 0.0 | 0.0 | 0.00 | 0.00 | 0.00 | 93 | 1017.8 |
| 20260506121554 | 11 | 276 | 0.0 | 0.0 | 0.00 | 0.00 | 0.00 | 93 | 1017.7 |
| 20260506121054 | 11 | 276 | 0.0 | 0.0 | 0.00 | 0.00 | 0.00 | 93 | 1017.7 |
| 20260506120553 | 11 | 276 | 0.0 | 0.0 | 0.00 | 0.00 | 0.00 | 93 | 1017.6 |
| 20260506120053 | 11 | 276 | 0.0 | 0.0 | 0.00 | 0.00 | 0.00 | 93 | 1017.5 |
| 20260506115553 | 11 | 276 | 0.0 | 0.0 | 0.00 | 0.00 | 0.00 | 93 | 1017.5 |
| 20260506115052 | 11 | 276 | 0.0 | 0.0 | 0.00 | 0.00 | 0.00 | 93 | 1017.5 |
| 20260506114552 | 11 | 276 | 0.0 | 0.0 | 0.00 | 0.00 | 0.00 | 93 | 1017.6 |
| 20260506114052 | 11 | 276 | 0.0 | 0.0 | 0.00 | 0.00 | 0.00 | 93 | 1017.6 |
| 20260506113550 | 11 | 276 | 0.0 | 0.0 | 0.00 | 0.00 | 0.00 | 93 | 1017.4 |
| 20260506113054 | 11 | 276 | 0.0 | 0.0 | 0.00 | 0.00 | 0.00 | 93 | 1017.4 |
| 20260506112549 | 11 | 276 | 0.0 | 0.0 | 0.00 | 0.00 | 0.00 | 93 | 1017.4 |
| 20260506112049 | 11 | 276 | 0.0 | 0.0 | 0.00 | 0.00 | 0.00 | 93 | 1017.4 |
| 20260506111550 | 11 | 276 | 0.0 | 0.0 | 0.00 | 0.00 | 0.00 | 93 | 1017.3 |
| 20260506111047 | 11 | 276 | 0.0 | 0.0 | 0.00 | 0.00 | 0.00 | 93 | 1017.3 |
| 20260506110548 | 11 | 276 | 0.0 | 0.0 | 0.00 | 0.00 | 0.00 | 93 | 1017.2 |
| 20260506110052 | 11 | 276 | 0.0 | 0.0 | 0.00 | 0.00 | 0.00 | 93 | 1017.2 |
| 20260506105545 | 11 | 276 | 0.0 | 0.0 | 0.00 | 0.00 | 0.00 | 93 | 1017.0 |
| 20260506105046 | 11 | 276 | 0.0 | 0.0 | 0.00 | 0.00 | 0.00 | 92 | 1016.9 |
| 20260506104543 | 11 | 276 | 0.0 | 0.0 | 0.00 | 0.00 | 0.00 | 92 | 1016.8 |
| 20260506104042 | 11 | 276 | 0.0 | 0.0 | 0.00 | 0.00 | 0.00 | 92 | 1016.8 |
| 20260506103541 | 11 | 276 | 0.0 | 0.0 | 0.00 | 0.00 | 0.00 | 93 | 1016.7 |
| 20260506103046 | 11 | 276 | 0.0 | 0.0 | 0.00 | 0.00 | 0.00 | 92 | 1016.6 |
| 20260506102540 | 11 | 276 | 0.0 | 0.0 | 0.00 | 0.00 | 0.00 | 92 | 1016.6 |
| 20260506102038 | 11 | 276 | 0.0 | 0.0 | 0.00 | 0.00 | 0.00 | 92 | 1016.6 |
| 20260506101550 | 11 | 276 | 0.0 | 0.0 | 0.00 | 0.00 | 0.00 | 92 | 1016.5 |
| 20260506101038 | 11 | 276 | 0.0 | 0.0 | 0.00 | 0.00 | 0.00 | 92 | 1016.4 |
| 20260506100536 | 11 | 276 | 0.0 | 0.0 | 0.00 | 0.00 | 0.00 | 92 | 1016.4 |
| 20260506100036 | 11 | 276 | 0.0 | 0.0 | 0.00 | 0.00 | 0.00 | 92 | 1016.4 |
| 20260506095538 | 11 | 276 | 0.0 | 0.0 | 0.00 | 0.00 | 0.00 | 92 | 1016.4 |
| 20260506095035 | 12 | 276 | 0.0 | 0.0 | 0.00 | 0.00 | 0.00 | 92 | 1016.3 |
| 20260506094540 | 12 | 276 | 0.0 | 0.0 | 0.00 | 0.00 | 0.00 | 92 | 1016.3 |
| 20260506094034 | 12 | 276 | 0.0 | 0.0 | 0.00 | 0.00 | 0.00 | 91 | 1016.3 |
| 20260506093532 | 12 | 276 | 0.0 | 0.0 | 0.00 | 0.00 | 0.00 | 92 | 1016.3 |
| 20260506093031 | 12 | 276 | 0.0 | 0.0 | 0.00 | 0.00 | 0.00 | 91 | 1016.2 |
| 20260506092531 | 12 | 276 | 0.0 | 0.0 | 0.00 | 0.00 | 0.00 | 91 | 1016.2 |
| 20260506092032 | 12 | 276 | 0.0 | 0.0 | 0.00 | 0.00 | 0.00 | 91 | 1016.2 |
| 20260506091530 | 12 | 276 | 0.0 | 0.0 | 0.00 | 0.00 | 0.00 | 91 | 1016.2 |
| 20260506091028 | 12 | 276 | 0.0 | 0.0 | 0.00 | 0.00 | 0.00 | 91 | 1016.1 |
| 20260506090529 | 12 | 276 | 0.0 | 0.0 | 0.00 | 0.00 | 0.00 | 91 | 1016.0 |
| 20260506090027 | 12 | 276 | 0.0 | 0.0 | 0.00 | 0.00 | 0.00 | 91 | 1016.1 |
| 20260506085526 | 12 | 276 | 0.0 | 0.0 | 0.00 | 0.00 | 0.00 | 91 | 1016.0 |
| 20260506085026 | 12 | 276 | 0.0 | 0.0 | 0.00 | 0.00 | 0.00 | 90 | 1016.0 |
| 20260506084529 | 12 | 276 | 0.0 | 0.0 | 0.00 | 0.00 | 0.00 | 90 | 1016.0 |
| 20260506084025 | 12 | 276 | 0.0 | 0.0 | 0.00 | 0.00 | 0.00 | 90 | 1016.0 |
| 20260506083524 | 12 | 276 | 0.0 | 0.0 | 0.00 | 0.00 | 0.00 | 90 | 1015.9 |
| 20260506083024 | 12 | 276 | 0.0 | 0.0 | 0.00 | 0.00 | 0.00 | 90 | 1015.9 |
| 20260506082523 | 12 | 276 | 0.0 | 0.0 | 0.00 | 0.00 | 0.00 | 90 | 1015.9 |
| 20260506082026 | 12 | 276 | 0.0 | 0.0 | 0.00 | 0.00 | 0.00 | 90 | 1015.8 |
| 20260506081522 | 12 | 276 | 0.0 | 0.0 | 0.00 | 0.00 | 0.00 | 90 | 1015.8 |
| 20260506081022 | 12 | 276 | 0.0 | 0.0 | 0.00 | 0.00 | 0.00 | 90 | 1015.8 |
| 20260506080521 | 12 | 276 | 0.0 | 0.0 | 0.00 | 0.00 | 0.00 | 90 | 1015.8 |
| 20260506073518 | 13 | 276 | 0.0 | 0.0 | 0.00 | 0.00 | 0.00 | 88 | 1015.6 |
| 20260506073017 | 13 | 276 | 0.0 | 0.0 | 0.00 | 0.00 | 0.00 | 88 | 1015.6 |
| 20260506072518 | 13 | 276 | 0.0 | 0.0 | 0.00 | 0.00 | 0.00 | 88 | 1015.5 |
| 20260506072016 | 13 | 276 | 0.0 | 0.0 | 0.00 | 0.00 | 0.00 | 88 | 1015.5 |
| 20260506071517 | 13 | 276 | 0.0 | 0.0 | 0.00 | 0.00 | 0.00 | 87 | 1015.5 |
| 20260506071014 | 13 | 276 | 0.0 | 0.0 | 0.00 | 0.00 | 0.00 | 87 | 1015.5 |
| 20260506070513 | 13 | 276 | 0.0 | 0.0 | 0.00 | 0.00 | 0.00 | 86 | 1015.5 |
| 20260506062516 | 14 | 276 | 0.0 | 0.0 | 0.00 | 0.00 | 0.00 | 82 | 1015.1 |
| 20260506062010 | 15 | 276 | 0.0 | 0.0 | 0.00 | 0.00 | 0.00 | 82 | 1015.0 |
| 20260506061510 | 15 | 276 | 0.0 | 0.0 | 0.00 | 0.00 | 0.00 | 82 | 1015.0 |
| 20260506061014 | 15 | 276 | 0.0 | 0.0 | 0.00 | 0.00 | 0.00 | 83 | 1015.0 |
| 20260506060509 | 15 | 276 | 0.0 | 0.0 | 0.00 | 0.00 | 0.00 | 83 | 1015.0 |
| 20260506051009 | 15 | 279 | 0.0 | 0.0 | 0.00 | 0.00 | 0.00 | 78 | 1014.7 |
| 20260506050512 | 15 | 279 | 0.0 | 0.0 | 0.00 | 0.00 | 0.00 | 78 | 1014.7 |
| 20260506045006 | 16 | 279 | 0.0 | 0.0 | 0.00 | 0.00 | 0.00 | 76 | 1014.4 |
| 20260506044509 | 16 | 279 | 0.0 | 0.0 | 0.00 | 0.00 | 0.00 | 75 | 1014.4 |
| 20260506044011 | 16 | 263 | 0.0 | 0.0 | 0.00 | 0.00 | 0.00 | 75 | 1014.3 |
| 20260506043505 | 16 | 251 | 0.0 | 0.0 | 0.00 | 0.00 | 0.00 | 75 | 1014.3 |
| 20260506043005 | 16 | 280 | 0.0 | 0.0 | 0.00 | 0.00 | 0.00 | 74 | 1014.2 |
| 20260506042505 | 16 | 262 | 0.0 | 0.0 | 0.00 | 0.00 | 0.00 | 74 | 1014.1 |
| 20260506042007 | 16 | 243 | 0.0 | 8.0 | 0.00 | 0.00 | 0.00 | 74 | 1014.2 |
| 20260506041508 | 16 | 278 | 1.6 | 11.3 | 0.00 | 0.00 | 0.00 | 73 | 1014.1 |
| 20260506041004 | 16 | 271 | 4.8 | 11.3 | 0.00 | 0.00 | 0.00 | 74 | 1014.0 |
| 20260506040505 | 16 | 278 | 0.0 | 0.0 | 0.00 | 0.00 | 0.00 | 73 | 1013.8 |
| 20260506040003 | 16 | 274 | 0.0 | 9.7 | 0.00 | 0.00 | 0.00 | 73 | 1013.8 |
| 20260506035505 | 16 | 278 | 1.6 | 14.5 | 0.00 | 0.00 | 0.00 | 72 | 1013.8 |
| 20260506035003 | 16 | 292 | 3.2 | 16.1 | 0.00 | 0.00 | 0.00 | 72 | 1013.8 |
| 20260506034504 | 16 | 245 | 6.4 | 16.1 | 0.00 | 0.00 | 0.00 | 72 | 1013.7 |
| 20260506034003 | 16 | 264 | 6.4 | 14.5 | 0.00 | 0.00 | 0.00 | 72 | 1013.7 |
| 20260506033502 | 16 | 266 | 4.8 | 17.7 | 0.00 | 0.00 | 0.00 | 72 | 1013.5 |
| 20260506033002 | 16 | 243 | 0.0 | 12.9 | 0.00 | 0.00 | 0.00 | 72 | 1013.4 |
| 20260506032502 | 17 | 267 | 6.4 | 12.9 | 0.00 | 0.00 | 0.00 | 72 | 1013.4 |
| 20260506032003 | 17 | 284 | 6.4 | 16.1 | 0.00 | 0.00 | 0.00 | 72 | 1013.3 |
| 20260506031502 | 17 | 269 | 6.4 | 22.5 | 0.00 | 0.00 | 0.00 | 72 | 1013.4 |
| 20260506031002 | 17 | 250 | 6.4 | 22.5 | 0.00 | 0.00 | 0.00 | 72 | 1013.3 |
| 20260506030501 | 17 | 248 | 9.7 | 24.1 | 0.00 | 0.00 | 0.00 | 72 | 1013.3 |
| 20260506030000 | 17 | 269 | 6.4 | 24.1 | 0.00 | 0.00 | 0.00 | 72 | 1013.1 |
| 20260506025601 | 17 | 280 | 8.0 | 24.1 | 0.00 | 0.00 | 0.00 | 72 | 1013.1 |
| 20260506025100 | 17 | 269 | 8.0 | 17.7 | 0.00 | 0.00 | 0.00 | 72 | 1013.1 |
| 20260506024601 | 17 | 238 | 8.0 | 17.7 | 0.00 | 0.00 | 0.00 | 72 | 1013.1 |
| 20260506024100 | 18 | 272 | 8.0 | 17.7 | 0.00 | 0.00 | 0.00 | 72 | 1013.1 |
| 20260506024001 | 18 | 270 | 8.0 | 19.3 | 0.00 | 0.00 | 0.00 | 72 | 1013.1 |
| 20260506023559 | 18 | 276 | 9.7 | 24.1 | 0.00 | 0.00 | 0.00 | 71 | 1013.0 |
| 20260506023101 | 18 | 266 | 9.7 | 24.1 | 0.00 | 0.00 | 0.00 | 71 | 1013.1 |
| 20260506022559 | 18 | 250 | 9.7 | 20.9 | 0.00 | 0.00 | 0.00 | 70 | 1013.0 |
| 20260506022059 | 18 | 274 | 9.7 | 20.9 | 0.00 | 0.00 | 0.00 | 70 | 1013.0 |
| 20260506021559 | 18 | 255 | 8.0 | 16.1 | 0.00 | 0.00 | 0.00 | 70 | 1012.9 |
| 20260506021101 | 18 | 250 | 6.4 | 19.3 | 0.00 | 0.00 | 0.00 | 70 | 1012.9 |
| 20260506020558 | 19 | 272 | 8.0 | 19.3 | 0.00 | 0.00 | 0.00 | 69 | 1013.0 |
| 20260506020058 | 19 | 281 | 9.7 | 19.3 | 0.00 | 0.00 | 0.00 | 69 | 1012.9 |
| 20260506015559 | 19 | 290 | 9.7 | 20.9 | 0.00 | 0.00 | 0.00 | 68 | 1012.9 |
| 20260506015059 | 20 | 244 | 9.7 | 20.9 | 0.00 | 0.00 | 0.00 | 67 | 1012.9 |
| 20260506014559 | 20 | 278 | 9.7 | 20.9 | 0.00 | 0.00 | 0.00 | 66 | 1012.8 |
| 20260506014101 | 20 | 236 | 6.4 | 19.3 | 0.00 | 0.00 | 0.00 | 66 | 1012.8 |
| 20260506013557 | 20 | 276 | 8.0 | 19.3 | 0.00 | 0.00 | 0.00 | 65 | 1012.8 |
| 20260506013056 | 20 | 277 | 4.8 | 14.5 | 0.00 | 0.00 | 0.00 | 64 | 1012.7 |
| 20260506012557 | 20 | 256 | 6.4 | 19.3 | 0.00 | 0.00 | 0.00 | 63 | 1012.8 |
| 20260506012057 | 20 | 267 | 8.0 | 19.3 | 0.00 | 0.00 | 0.00 | 63 | 1012.7 |
| 20260506011555 | 21 | 294 | 0.0 | 14.5 | 0.00 | 0.00 | 0.00 | 63 | 1012.7 |
| 20260506011055 | 20 | 268 | 6.4 | 19.3 | 0.00 | 0.00 | 0.00 | 64 | 1012.7 |
| 20260506010555 | 20 | 289 | 9.7 | 20.9 | 0.00 | 0.00 | 0.00 | 62 | 1012.7 |
| 20260506010055 | 21 | 267 | 9.7 | 20.9 | 0.00 | 0.00 | 0.00 | 60 | 1012.8 |
| 20260506005555 | 21 | 271 | 6.4 | 24.1 | 0.00 | 0.00 | 0.00 | 61 | 1012.8 |
| 20260506005055 | 21 | 295 | 12.9 | 24.1 | 0.00 | 0.00 | 0.00 | 60 | 1012.8 |
| 20260506004558 | 21 | 297 | 8.0 | 20.9 | 0.00 | 0.00 | 0.00 | 61 | 1012.8 |
| 20260506004054 | 21 | 272 | 6.4 | 19.3 | 0.00 | 0.00 | 0.00 | 63 | 1012.7 |
| 20260506003554 | 21 | 235 | 11.3 | 20.9 | 0.00 | 0.00 | 0.00 | 63 | 1012.8 |
| 20260506003055 | 21 | 259 | 11.3 | 25.7 | 0.00 | 0.00 | 0.00 | 63 | 1012.7 |
| 20260506002554 | 21 | 300 | 8.0 | 25.7 | 0.00 | 0.00 | 0.00 | 62 | 1012.8 |
| 20260506002054 | 21 | 246 | 9.7 | 19.3 | 0.00 | 0.00 | 0.00 | 61 | 1012.8 |
| 20260506001612 | 21 | 262 | 6.4 | 24.1 | 0.00 | 0.00 | 0.00 | 62 | 1012.8 |
| 20260506001053 | 21 | 266 | 8.0 | 24.1 | 0.00 | 0.00 | 0.00 | 61 | 1012.8 |
| 20260506000553 | 21 | 271 | 11.3 | 24.1 | 0.00 | 0.00 | 0.00 | 61 | 1012.8 |
| 20260506000053 | 21 | 242 | 11.3 | 22.5 | 0.00 | 0.00 | 0.00 | 61 | 1012.9 |
| 20260505235552 | 21 | 236 | 11.3 | 25.7 | 0.00 | 0.00 | 0.00 | 60 | 1012.9 |
| 20260505235052 | 21 | 247 | 6.4 | 25.7 | 0.00 | 0.00 | 0.00 | 60 | 1012.9 |
| 20260505234553 | 21 | 252 | 11.3 | 22.5 | 0.00 | 0.00 | 0.00 | 60 | 1013.0 |
| 20260505234054 | 21 | 272 | 8.0 | 22.5 | 0.00 | 0.00 | 0.00 | 60 | 1012.9 |
| 20260505233552 | 21 | 286 | 9.7 | 22.5 | 0.00 | 0.00 | 0.00 | 60 | 1013.0 |
| 20260505233056 | 21 | 248 | 11.3 | 22.5 | 0.00 | 0.00 | 0.00 | 60 | 1013.0 |
| 20260505232552 | 21 | 258 | 11.3 | 29.0 | 0.00 | 0.00 | 0.00 | 60 | 1013.1 |
| 20260505232052 | 21 | 244 | 9.7 | 29.0 | 0.00 | 0.00 | 0.00 | 61 | 1013.1 |
| 20260505231555 | 21 | 281 | 12.9 | 24.1 | 0.00 | 0.00 | 0.00 | 60 | 1013.1 |
| 20260505231050 | 21 | 263 | 12.9 | 24.1 | 0.00 | 0.00 | 0.00 | 60 | 1013.2 |
| 20260505230551 | 22 | 254 | 9.7 | 20.9 | 0.00 | 0.00 | 0.00 | 59 | 1013.2 |
| 20260505230100 | 21 | 263 | 9.7 | 22.5 | 0.00 | 0.00 | 0.00 | 60 | 1013.3 |
| 20260505225550 | 21 | 293 | 9.7 | 25.7 | 0.00 | 0.00 | 0.00 | 61 | 1013.3 |
| 20260505225053 | 21 | 292 | 12.9 | 25.7 | 0.00 | 0.00 | 0.00 | 60 | 1013.4 |
| 20260505224550 | 22 | 283 | 9.7 | 20.9 | 0.00 | 0.00 | 0.00 | 60 | 1013.5 |
| 20260505224049 | 22 | 234 | 8.0 | 25.7 | 0.00 | 0.00 | 0.00 | 60 | 1013.5 |
| 20260505223549 | 21 | 269 | 12.9 | 25.7 | 0.00 | 0.00 | 0.00 | 61 | 1013.5 |
| 20260505223056 | 22 | 252 | 8.0 | 24.1 | 0.00 | 0.00 | 0.00 | 60 | 1013.5 |
| 20260505222549 | 21 | 281 | 11.3 | 24.1 | 0.00 | 0.00 | 0.00 | 62 | 1013.5 |
| 20260505222049 | 21 | 278 | 12.9 | 29.0 | 0.00 | 0.00 | 0.00 | 61 | 1013.5 |
| 20260505221552 | 21 | 274 | 12.9 | 24.1 | 0.00 | 0.00 | 0.00 | 62 | 1013.5 |
| 20260505221049 | 22 | 261 | 11.3 | 24.1 | 0.00 | 0.00 | 0.00 | 61 | 1013.5 |
| 20260505220549 | 21 | 243 | 11.3 | 25.7 | 0.00 | 0.00 | 0.00 | 62 | 1013.5 |
| 20260505220050 | 21 | 295 | 9.7 | 29.0 | 0.00 | 0.00 | 0.00 | 62 | 1013.6 |
| 20260505215546 | 21 | 254 | 12.9 | 30.6 | 0.00 | 0.00 | 0.00 | 61 | 1013.6 |
| 20260505215046 | 21 | 260 | 12.9 | 30.6 | 0.00 | 0.00 | 0.00 | 61 | 1013.6 |
| 20260505214558 | 21 | 271 | 9.7 | 22.5 | 0.00 | 0.00 | 0.00 | 62 | 1013.7 |
| 20260505214045 | 21 | 279 | 9.7 | 25.7 | 0.00 | 0.00 | 0.00 | 62 | 1013.7 |
| 20260505213544 | 21 | 245 | 11.3 | 24.1 | 0.00 | 0.00 | 0.00 | 61 | 1013.8 |
| 20260505213055 | 21 | 276 | 8.0 | 25.7 | 0.00 | 0.00 | 0.00 | 63 | 1013.7 |
| 20260505212544 | 21 | 242 | 14.5 | 25.7 | 0.00 | 0.00 | 0.00 | 62 | 1013.8 |
| 20260505212044 | 21 | 243 | 12.9 | 25.7 | 0.00 | 0.00 | 0.00 | 61 | 1013.8 |
| 20260505211543 | 21 | 264 | 11.3 | 24.1 | 0.00 | 0.00 | 0.00 | 63 | 1013.8 |
| 20260505211044 | 21 | 246 | 11.3 | 25.7 | 0.00 | 0.00 | 0.00 | 63 | 1013.8 |
| 20260505210542 | 21 | 252 | 14.5 | 25.7 | 0.00 | 0.00 | 0.00 | 63 | 1013.7 |
| 20260505210042 | 21 | 280 | 9.7 | 20.9 | 0.00 | 0.00 | 0.00 | 63 | 1013.8 |
| 20260505205543 | 21 | 236 | 11.3 | 22.5 | 0.00 | 0.00 | 0.00 | 62 | 1013.8 |
| 20260505205041 | 21 | 285 | 11.3 | 22.5 | 0.00 | 0.00 | 0.00 | 62 | 1013.9 |
| 20260505204540 | 21 | 252 | 9.7 | 22.5 | 0.00 | 0.00 | 0.00 | 63 | 1014.0 |
| 20260505204040 | 21 | 302 | 12.9 | 0.0 | 0.00 | 0.00 | 0.00 | 64 | 1014.0 |
| 20260505203540 | 21 | 269 | 12.9 | 25.7 | 0.00 | 0.00 | 0.00 | 64 | 1014.0 |
| 20260505203046 | 21 | 260 | 11.3 | 22.5 | 0.00 | 0.00 | 0.00 | 64 | 1014.1 |
| 20260505202539 | 21 | 250 | 11.3 | 29.0 | 0.00 | 0.00 | 0.00 | 64 | 1014.0 |
| 20260505202042 | 21 | 262 | 11.3 | 29.0 | 0.00 | 0.00 | 0.00 | 64 | 1014.1 |
| 20260505201549 | 21 | 253 | 9.7 | 29.0 | 0.00 | 0.00 | 0.00 | 64 | 1014.1 |
| 20260505201039 | 21 | 286 | 11.3 | 24.1 | 0.00 | 0.00 | 0.00 | 64 | 1014.1 |
| 20260505200540 | 21 | 212 | 9.7 | 22.5 | 0.00 | 0.00 | 0.00 | 64 | 1014.0 |
| 20260505200038 | 21 | 252 | 11.3 | 27.4 | 0.00 | 0.00 | 0.00 | 64 | 1014.1 |
| 20260505195538 | 21 | 260 | 11.3 | 27.4 | 0.00 | 0.00 | 0.00 | 64 | 1014.1 |
| 20260505195039 | 21 | 251 | 9.7 | 27.4 | 0.00 | 0.00 | 0.00 | 64 | 1014.0 |
| 20260505194538 | 21 | 287 | 9.7 | 20.9 | 0.00 | 0.00 | 0.00 | 64 | 1014.1 |
| 20260505194038 | 21 | 275 | 9.7 | 19.3 | 0.00 | 0.00 | 0.00 | 63 | 1014.1 |
| 20260505193538 | 21 | 240 | 9.7 | 24.1 | 0.00 | 0.00 | 0.00 | 64 | 1014.1 |
| 20260505193045 | 20 | 272 | 11.3 | 24.1 | 0.00 | 0.00 | 0.00 | 64 | 1014.2 |
| 20260505192539 | 20 | 246 | 8.0 | 24.1 | 0.00 | 0.00 | 0.00 | 64 | 1014.2 |
| 20260505192036 | 20 | 276 | 8.0 | 20.9 | 0.00 | 0.00 | 0.00 | 64 | 1014.1 |
| 20260505191545 | 20 | 264 | 8.0 | 22.5 | 0.00 | 0.00 | 0.00 | 64 | 1014.2 |
| 20260505191035 | 21 | 284 | 11.3 | 22.5 | 0.00 | 0.00 | 0.00 | 63 | 1014.2 |
| 20260505190534 | 21 | 251 | 6.4 | 14.5 | 0.00 | 0.00 | 0.00 | 63 | 1014.2 |
| 20260505190038 | 21 | 246 | 6.4 | 17.7 | 0.00 | 0.00 | 0.00 | 64 | 1014.2 |
| 20260505185535 | 20 | 239 | 6.4 | 17.7 | 0.00 | 0.00 | 0.00 | 64 | 1014.2 |
| 20260505185032 | 20 | 272 | 9.7 | 20.9 | 0.00 | 0.00 | 0.00 | 65 | 1014.2 |
| 20260505184532 | 20 | 284 | 0.0 | 20.9 | 0.00 | 0.00 | 0.00 | 65 | 1014.3 |
| 20260505184031 | 20 | 272 | 9.7 | 19.3 | 0.00 | 0.00 | 0.00 | 63 | 1014.3 |
| 20260505183535 | 20 | 269 | 6.4 | 17.7 | 0.00 | 0.00 | 0.00 | 63 | 1014.3 |
| 20260505183045 | 20 | 280 | 6.4 | 17.7 | 0.00 | 0.00 | 0.00 | 64 | 1014.4 |
| 20260505182529 | 20 | 257 | 4.8 | 17.7 | 0.00 | 0.00 | 0.00 | 62 | 1014.4 |
| 20260505182030 | 20 | 240 | 6.4 | 17.7 | 0.00 | 0.00 | 0.00 | 63 | 1014.4 |
| 20260505181529 | 20 | 268 | 1.6 | 12.9 | 0.00 | 0.00 | 0.00 | 63 | 1014.4 |
| 20260505181030 | 19 | 262 | 0.0 | 16.1 | 0.00 | 0.00 | 0.00 | 64 | 1014.4 |
| 20260505180527 | 19 | 254 | 6.4 | 14.5 | 0.00 | 0.00 | 0.00 | 62 | 1014.5 |
| 20260505180035 | 20 | 250 | 3.2 | 12.9 | 0.00 | 0.00 | 0.00 | 62 | 1014.5 |
| 20260505175526 | 19 | 271 | 0.0 | 14.5 | 0.00 | 0.00 | 0.00 | 64 | 1014.6 |
| 20260505175026 | 19 | 282 | 6.4 | 17.7 | 0.00 | 0.00 | 0.00 | 64 | 1014.6 |
| 20260505174531 | 19 | 280 | 4.8 | 17.7 | 0.00 | 0.00 | 0.00 | 64 | 1014.7 |
| 20260505174026 | 19 | 265 | 0.0 | 3.2 | 0.00 | 0.00 | 0.00 | 65 | 1014.7 |
| 20260505173525 | 18 | 262 | 0.0 | 12.9 | 0.00 | 0.00 | 0.00 | 66 | 1014.7 |
| 20260505173034 | 18 | 264 | 6.4 | 14.5 | 0.00 | 0.00 | 0.00 | 65 | 1014.6 |
| 20260505172524 | 18 | 257 | 0.0 | 14.5 | 0.00 | 0.00 | 0.00 | 66 | 1014.7 |
| 20260505172029 | 18 | 256 | 1.6 | 14.5 | 0.00 | 0.00 | 0.00 | 67 | 1014.7 |
| 20260505171529 | 18 | 248 | 0.0 | 11.3 | 0.00 | 0.00 | 0.00 | 66 | 1014.7 |
| 20260505171023 | 18 | 257 | 0.0 | 12.9 | 0.00 | 0.00 | 0.00 | 66 | 1014.7 |
| 20260505170522 | 18 | 263 | 1.6 | 12.9 | 0.00 | 0.00 | 0.00 | 67 | 1014.8 |
| 20260505170024 | 18 | 274 | 0.0 | 6.4 | 0.00 | 0.00 | 0.00 | 68 | 1014.8 |